Regional Weather Roundup
Issued by NWS

Home | Current Version | Previous Version | Graphics & Text | Print | Product List | Glossary On
Versions: 1 2 3 4 5 6 7 8 9 10 11 12 13 14 15 16 17 18 19 20 21 22 23 24 25 26 27 28 29 30 31 32 33 34 35 36 37 38 39 40 41 42 43 44 45 46 47 48 49 50
000
ASUS43 KIND 230609
RWRIN

WEATHER ROUNDUP FOR INDIANA
NATIONAL WEATHER SERVICE INDIANAPOLIS IN
200 AM EDT MON OCT 23 2017

NOTE: "FAIR" INDICATES FEW OR NO CLOUDS BELOW 12,000 FEET WITH NO
SIGNIFICANT WEATHER AND/OR OBSTRUCTIONS TO VISIBILITY.

* - STATION DOES NOT REPORT WEATHER SUCH AS PRECIPITATION OR FOG.

+ - STATION NOT QUALITY CONTROLLED BY THE NATIONAL WEATHER SERVICE.
    USE DATA WITH CAUTION...ESPECIALLY DEWPOINT AND RELATIVE
    HUMIDITY OBSERVATIONS.

INZ001>003-010>013-019-020-230700-
NORTHWEST INDIANA

CITY           SKY/WX    TMP DP  RH WIND       PRES   REMARKS
GARY /AIRPORT/ LGT RAIN  57  56  97 N8        29.97F
KNOX *+        CLOUDY    55  54  94 CALM      29.95F
LA PORTE +     DRIZZLE   55  55  97 N5        29.96F
6HR MIN TEMP:  55; 6HR MAX TEMP:  56;

MICHIGAN CITY+ LGT RAIN  55  55 100 NE7       29.96F
MONTICELLO +   CLOUDY    57  55  95 N5        29.94S
6HR MIN TEMP:  57; 6HR MAX TEMP:  67;

RENSSELAER +   LGT RAIN  55  52  88 N9        29.94F
VALPARAISO     LGT RAIN  57  56  96 NE6       29.96F
6HR MIN TEMP:  55; 6HR MAX TEMP:  57; 6HR PCP:  0.04;


$$

LMZ046-743>745-230700-
SOUTHERN LAKE MICHIGAN

STATION/POSITION TIME  TEMP    WIND        PRES    WAVE
                       AIR SEA DIR/SP/G            HT
                 (UTC) (F)     (DEG/KT/KT) (MB)    (FT)
BURNS HARBOR     0540   56      40/ 10/ 12 1015.2F
MICHIGAN CITY    0540   56      20/ 12/ 13   N/A
5NW MICH CITY    0600   56 58   40/ 12/ 14   N/A     4

$$

INZ004-005-014>016-021>024-230700-
NORTH CENTRAL INDIANA

CITY           SKY/WX    TMP DP  RH WIND       PRES   REMARKS
GOSHEN         CLOUDY    62  58  86 CALM      29.94F
6HR MIN TEMP:  62; 6HR MAX TEMP:  73;

LOGANSPORT +   CLOUDY    64  54  68 CALM      29.94S
PERU/GRISSOM   CLOUDY    66  55  66 S6        29.93F
6HR MIN TEMP:  66; 6HR MAX TEMP:  71;

SOUTH BEND     CLOUDY    56  56 100 N7        29.96F
6HR MIN TEMP:  56; 6HR MAX TEMP:  64; 6HR PCP: TRACE;

WARSAW +       CLOUDY    64  54  68 CALM      29.95F

$$

INZ006>009-017-018-025>027-230700-
NORTHEAST INDIANA

CITY           SKY/WX    TMP DP  RH WIND       PRES   REMARKS
AUBURN +       CLOUDY    66  50  55 CALM      29.97F
FORT WAYNE     MOCLDY    66  51  58 S8        29.96F
6HR MIN TEMP:  65; 6HR MAX TEMP:  71;

HUNTINGTON +   CLOUDY    65  51  61 SE6       29.95F
6HR MIN TEMP:  65; 6HR MAX TEMP:  71;

KENDALLVILLE + CLOUDY    66  52  60 S8        29.96F

$$

INZ028-029-035-036-043>045-051>053-230700-
WEST CENTRAL INDIANA

CITY           SKY/WX    TMP DP  RH WIND       PRES   REMARKS
CRAWFORDSVL +  CLOUDY    59  59 100 E3        29.91F
GREENCASTLE +  CLOUDY    61  61 100 CALM      29.92F
LAFAYETTE      RAIN      56  56 100 NE5       29.93F
6HR MIN TEMP:  56; 6HR MAX TEMP:  69; 6HR PCP:  0.08;

TERRE HAUTE    LGT RAIN  61  60  97 NE5       29.90F
6HR MIN TEMP:  61; 6HR MAX TEMP:  72; 6HR PCP:  0.17;


$$

INZ030>032-037>040-046>048-054>057-064-065-230700-
CENTRAL INDIANA

CITY           SKY/WX    TMP DP  RH WIND       PRES   REMARKS
CP ATTERBURY + CLOUDY    66  55  68 SE6       29.93F
FISHERS *+     CLOUDY    64  57  77 SE7       29.93F
FRANKFORT +    CLOUDY    66  59  77 CALM      29.95F
6HR MIN TEMP:  66; 6HR MAX TEMP:  73;

GREENWOOD *+   CLOUDY    69  57  65 SE7       29.95S
6HR MIN TEMP:  69; 6HR MAX TEMP:  73;

INDIANAPOLIS   CLOUDY    67  55  65 SE9       29.93F
6HR MIN TEMP:  67; 6HR MAX TEMP:  71;

-EAGLE CREEK   CLOUDY    68  55  63 VRB7      29.92F
6HR MIN TEMP:  68; 6HR MAX TEMP:  72;

KOKOMO +       CLOUDY    65  55  70 S8        29.94F
6HR MIN TEMP:  65; 6HR MAX TEMP:  71;

MT COMFORT *+  CLOUDY    66  59  77 S9        29.94F
SHELBYVILLE    MOCLDY    68  53  58 SE10      29.93F
6HR MIN TEMP:  67; 6HR MAX TEMP:  70;

ZIONSVILLE +   CLOUDY    66  55  68 S8        29.94F
6HR MIN TEMP:  65; 6HR MAX TEMP:  70;


$$

INZ033-034-041-042-049-050-058-059-230700-
EAST CENTRAL INDIANA

CITY           SKY/WX    TMP DP  RH WIND       PRES   REMARKS
MUNCIE         CLOUDY    68  52  56 S9        29.96F
6HR MIN TEMP:  68; 6HR MAX TEMP:  72;

RICHMOND +     CLOUDY    61  50  67 SE8       30.00F

$$

INZ060-061-067>069-081>083-085>088-230700-
SOUTHWEST INDIANA

CITY           SKY/WX    TMP DP  RH WIND       PRES   REMARKS
EVANSVILLE     HVY RAIN  65  63  93 CALM      29.87F FOG
6HR MIN TEMP:  64; 6HR MAX TEMP:  74; 6HR PCP:  1.11;

HUNTINGBURG +  RAIN      66  63  90 SE6       29.90F FOG
6HR MIN TEMP:  66; 6HR MAX TEMP:  72; 6HR PCP:  0.08;

WASHINGTON +   RAIN      65  63  94 SE6       29.89F
6HR MIN TEMP:  64; 6HR MAX TEMP:  72; 6HR PCP:  0.21;


$$

INZ062-063-066-070>080-084-089>092-230700-
SOUTH CENTRAL AND SOUTHEAST INDIANA

CITY           SKY/WX    TMP DP  RH WIND       PRES   REMARKS
BEDFORD +      MOCLDY    68  57  68 SE3       29.91F
BLOOMINGTON    CLOUDY    68  57  68 S7        29.92F
6HR MIN TEMP:  68; 6HR MAX TEMP:  72;

MADISON *+     CLOUDY    68  52  56 SE7       29.98F
NORTH VERNON + CLOUDY    66  54  63 SE8       29.95F
SEYMOUR +      MOCLDY    70  54  56 SE9       29.93F

$$





USA.gov is the U.S. government's official web portal to all federal, state and local government web resources and services.